Hourly Data Report for April 28, 2012

HALIFAX STANFIELD INT'L A
NOVA SCOTIA

44°52'48.060" N
63°30'00.050" W
145.40 m
8202250
71395
YHZ

Download Data

Hourly Data (April 2012)
Hourly Data Report for April 28, 2012
TIME
LST
Temp Definition
°C
Dew Point Definition
°C
Rel Hum Definition
%
Precip. Amount Definition
mm

Wind Dir Definition
10's deg

Wind Spd Definition
km/h
Visibility Definition
km
Stn Press Definition
kPa
Hmdx Definition


Wind Chill Definition


Weather Definition


00:00 4.7 1.4 79   26 32 24.1 98.30     Cloudy
01:00 3.9 1.0 81   27 26 16.1 98.39     Cloudy
02:00 3.1 0.5 83   27 32 24.1 98.47     Mostly Cloudy
03:00 2.6 0.1 84   27 30 24.1 98.56     Cloudy
04:00 1.7 -0.4 86   27 26 19.3 98.63     Snow Showers
05:00 1.7 -2.0 76   28 20 24.1 98.73     Cloudy
06:00 1.3 -3.2 72   27 24 24.1 98.85     Cloudy
07:00 1.5 -2.6 74   27 26 24.1 98.88     Cloudy
08:00 1.5 -2.9 72   28 20 24.1 98.93     Cloudy
09:00 1.6 -4.3 65   26 33 24.1 99.00     Cloudy
10:00 2.2 -5.2 58   28 26 24.1 99.00     Cloudy
11:00 2.4 -4.8 59   26 24 24.1 99.03     Cloudy
12:00 2.6 -5.5 55   25 33 24.1 99.05     Cloudy
13:00 3.3 -4.6 56   27 24 24.1 99.04     Cloudy
14:00 2.7 -5.1 56   28 22 24.1 99.06     Cloudy
15:00 2.4 -6.1 53   28 32 24.1 99.08     Cloudy
16:00 2.8 -6.2 52   26 26 24.1 99.11     Cloudy
17:00 3.3 -6.1 50   27 30 24.1 99.13     Mostly Cloudy
18:00 3.8 -6.2 48   27 22 24.1 99.21     Mainly Clear
19:00 2.9 -7.0 48   26 15 24.1 99.31     Mainly Clear
20:00 1.8 -6.7 53   24 19 24.1 99.43     Mainly Clear
21:00 1.4 -6.5 56   24 13 24.1 99.49     Clear
22:00 1.2 -5.9 59   24 17 24.1 99.54     Clear
23:00 1.3 -5.6 60   25 17 24.1 99.61     Clear

Notes on Data Quality.

Legend

  • E = Estimated
  • M = Missing
  • NA = Not Available*
  • [empty] = Indicates an unobserved value
Date modified: